This is the latest recevied weather packets stored in our database for station/object YO6SAY-10. If no packets are shown the sender has not sent any weather packets the latest 10 day(s).
| Time | Temp. | Humidity | Pressure | Rain* | Wind** | Luminosity | Snow |
|---|---|---|---|---|---|---|---|
| 1777883456 | 13.89° C | 45% | 950.9 hPa | - | - | - | - |
| 1777882556 | 13.89° C | 47% | 951.1 hPa | - | - | - | - |
| 1777881656 | 13.89° C | 48% | 951 hPa | - | - | - | - |
| 1777880756 | 14.44° C | 50% | 951.1 hPa | - | - | - | - |
| 1777879856 | 13.89° C | 47% | 951 hPa | - | - | - | - |
| 1777878956 | 13.89° C | 48% | 951.1 hPa | - | - | - | - |
| 1777878055 | 13.89° C | 48% | 951.1 hPa | - | - | - | - |
| 1777877155 | 13.89° C | 48% | 951.1 hPa | - | - | - | - |
| 1777876255 | 13.33° C | 49% | 951.2 hPa | - | - | - | - |
| 1777875355 | 13.33° C | 49% | 951.2 hPa | - | - | - | - |
| 1777874455 | 13.33° C | 46% | 951.2 hPa | - | - | - | - |
| 1777873555 | 12.78° C | 47% | 951.3 hPa | - | - | - | - |
| 1777872655 | 12.78° C | 47% | 951.2 hPa | - | - | - | - |
| 1777871754 | 12.78° C | 47% | 951.3 hPa | - | - | - | - |
| 1777870854 | 12.78° C | 47% | 951.2 hPa | - | - | - | - |
| 1777869954 | 12.78° C | 47% | 951.3 hPa | - | - | - | - |
| 1777869054 | 12.22° C | 47% | 951.3 hPa | - | - | - | - |
| 1777868154 | 12.22° C | 47% | 951.3 hPa | - | - | - | - |
| 1777867254 | 12.22° C | 47% | 951.3 hPa | - | - | - | - |
| 1777866354 | 12.22° C | 48% | 951.3 hPa | - | - | - | - |
| 1777864553 | 12.22° C | 47% | 951.2 hPa | - | - | - | - |
| 1777847442 | 12.78° C | 43% | 951.2 hPa | - | - | - | - |
| 1777843841 | 13.33° C | 41% | 951.7 hPa | - | - | - | - |
| 1777842941 | 13.33° C | 40% | 951.7 hPa | - | - | - | - |
| 1777842040 | 13.33° C | 40% | 951.6 hPa | - | - | - | - |
* Rain since midnight (hover to see other rain measurements)
** Current wind speed in m/s (hover to see current wind gust speed)